Location: Gro�wechsungen
(51.4926°N, 10.6901°E)
Time: 14:32:08
(UTC+00:00)

Cosmos 2082 Rocket - Pass Details

Date: 24 January 2021
Orbit: 832 x 854 km, 71.0° (Epoch: 04 March)

Event Time Altitude Azimuth Distance (km) Brightness Sun altitude
Rises 16:49:36 0° 330° (NNW) 3,438 5.5 -8.8°
Reaches altitude 10° 16:52:38 10° 345° (NNW) 2,499 4.6 -9.3°
Maximum altitude 16:57:04 22° 36° (NE) 1,775 3.4 -9.9°
Enters shadow 17:00:39 13° 80° (E) 2,269 3.8 -10.5°
